Location: Ferchesar
(52.6477°N, 12.4298°E)
Time: 09:15:22
(UTC+01:00)

S-56A Canister/Altair - Pass Details

Date: 14 December 2021
Orbit: 633 x 2499 km, 38.9° (Epoch: 19 January)

Event Time Altitude Azimuth Distance (km) Brightness Sun altitude
Rises 20:07:28 0° 218° (SW) 6,157 12.5 -36.7°
Reaches altitude 10° 20:12:19 10° 209° (SSW) 5,067 11.8 -37.4°
Enters shadow 20:21:06 28° 175° (S) 3,495 10.6 -38.7°
Maximum altitude 20:23:40 30° 157° (SSE) 3,283 - -39.1°
Drops below altitude 10° 20:32:44 10° 103° (ESE) 4,026 - -40.4°
Sets 20:36:03 0° 92° (E) 4,750 - -40.9°
